DMSP 5D-2 F12 DEB, 23250

Orbit data source: Space-Track

DMSP 5D-2 F12 DEB, 23250 is space debris in SSO originally from a launch on Mon, 29 Aug 1994 UTC launched from the Air Force Western Test Range (AFWTR). Debris objects in space refer to the collection of defunct objects orbiting the Earth. Examples of debris include non-operational satellites, rocket bodies, and fragments generated from explosions, collisions, or faulty payload assembly.

Loading next visibility...
DMSP 5D-2 F12 DEB details
Identifier
23250, 1994-057D
Orbit
SSO
Last TLE update20 hours ago
Origin
Flag of USUSAF SMC (US)
ManufacturerUnknown
MissionSpacecraft
Bus & MotorUnknown
Mass~5 kg wet, ~5 kg dry
Launch date (UTC)
1994-08-29 (30 years ago)
Launch vehicleUnknown
Launch site
Air Force Western Test Range (AFWTR)
Object type
Payload
Rocket body
Debris
Shape & HBRCyl, 1 m
Radar Cross Section0.707 m², Small (<0.1 m²)

Expand to show TLE details & history

TLE from 20 hours ago
0 DMSP 5D-2 F12 DEB
1 23250U 94057D   24360.58345826  .00029401  00000-0  45416-2 0  9991
2 23250  98.1014  25.5348 0005313 111.9615  54.2095 14.73233581587866
Epoch: 2024-12-25T14:00Z
Definitive object data (Epoch: 2024-12-25T14:00:10.793Z)
Latitude13.60561°
Longitude-97.12164°
Altitude650.841 km
Speed7.535 km/s
True Right ascension13h 49m 59s
True Declination13° 31' 34"
Sunlit
Object was in daylight at TLE epoch
Visualization TLE readout
Latitude-54.28554°
Longitude-109.61617°
Altitude673.859 km
Speed7.518 km/s
Apparent Right ascension17h 42m 57s
Apparent Declination-66° 05' 20"
Sunlit
Object is in daylight
Visualization observer readout
Local Sidereal Time09:13:32
Azimuth149.334° SSE
Elevation-50.825°
Doppler factor1
Orbital elements
Apogee altitude651.556 km
Perigee altitude644.09 km
Semi-major axis7,025.96 km
Eccentricity0.0005313
Inclination98.1014°
RAAN25.5348°
Arg. of periapsis111.9615°
True anomaly54.2589°
Mean anomaly54.2095°
Eccentric anomaly54.2342°
Mean motion3.6854 °/min
BSTAR0.0045416
Orbital period97.68 mins
Loading maneuver chart data...
Loading historical data...
Loading historical data...
Loading historical data...
Loading historical data...
Loading historical data...
Loading historical data...
Loading historical data...

DMSP 5D-2 F12 DEB Visibility forecast

Observer location: undefined°, undefined

Span
Click to sort rows by Start time (UTC) header in descending order
Start Az.
Max El. time (UTC)
Max El. Az.
Max El.
End time (UTC)
End Az.
8 mins2024-12-26 14:16:26.549Z30.16° NE2024-12-26 14:20:26.549Z104.28° ESE32.595°2024-12-26 14:24:26.549Z168.528° S
4 mins2024-12-26 15:55:26.549Z315.331° NNW2024-12-26 15:56:26.549Z298.389° NW17.748°2024-12-26 15:59:26.549Z253.188° W
6 mins2024-12-27 01:15:26.549Z125.19° SE2024-12-27 01:18:26.549Z63.409° ENE28.95°2024-12-27 01:21:26.549Z11.277° NNE
4 mins2024-12-27 02:53:26.549Z238.264° WSW2024-12-27 02:55:26.549Z274.956° WNW19.514°2024-12-27 02:57:26.549Z306.155° NW
|